Weather History for PAOM - February, 2014

Change the Weather History Date:

Friday, February 7, 2014

  Actual Average Record
Temperature  
Mean Temperature 15 °F -  
Max Temperature 21 °F 14 °F 38 °F (2000)
Min Temperature 9 °F -2 °F -42 °F (1978)
Degree Days  
Heating Degree Days 50 59  
Month to date heating degree days 303 414  
Since 1 July heating degree days 7016 8085  
Cooling Degree Days 0    
Month to date cooling degree days 0  
Year to date cooling degree days 0  
Moisture  
Dew Point 5 °F    
Average Humidity 0    
Maximum Humidity 0    
Minimum Humidity 0    
Precipitation  
Precipitation 0.00 in 0.03 in 0.28 in (1982)
Month to date precipitation 0.01 0.23  
Year to date precipitation 1.58 1.17  
Snow  
Snow 0.00 in 0.40 in 5.30 in (2005)
Month to date snowfall 0.6 2.9  
Since 1 July snowfall 45.8 47.4  
Snow Depth 4.00 in    
Sea Level Pressure  
Sea Level Pressure 30.70 in    
Wind  
Wind Speed 9 mph (NNE)    
Max Wind Speed 26 mph    
Max Gust Speed 31 mph    
Visibility 10 miles    
Events      
T = Trace of Precipitation, MM = Missing Value Source: NWS Daily Summary

Daily Weather History Graph

Daily Weather History Graph

Search for Another Location

Airport or City:

Trip Planner

Search our weather history database for the weather conditions in past years. The results will help you decide how hot, cold, wet, or windy it might be!

Date:

Astronomy

Feb. 07, 2014 Rise Set
Actual Time 10:24 AM AKST 6:08 PM AKST
Civil Twilight 9:29 AM AKST 7:03 PM AKST
Nautical Twilight 8:31 AM AKST 8:01 PM AKST
Astronomical Twilight 7:35 AM AKST 8:57 PM AKST
Moon 11:57 AM AKST (2/7) 5:20 AM AKST (2/7)
Length of Visible Light 9h 33m
Length of Day
7h 43m
First Quarter, 60% of the Moon is Illuminated
Feb 7
First Quarter
Feb 14
Full
Feb 22
Last Quarter
Feb 28
New
Mar 8
First Quarter

Hourly Weather History & Observations

Time (AKST) Temp. Windchill Dew Point Humidity Pressure Visibility Wind Dir Wind Speed Gust Speed Precip Events Conditions
12:53 AM 19.0 °F 13.9 °F 5.0 °F 54% 30.72 in 10.0 mi Variable 3.5 mph - N/A   Partly Cloudy
1:53 AM 17.1 °F 7.6 °F 3.9 °F 56% 30.72 in 10.0 mi Variable 6.9 mph - N/A   Clear
2:53 AM 17.1 °F 6.6 °F 3.9 °F 56% 30.72 in 10.0 mi NNE 8.1 mph - N/A   Clear
3:53 AM 12.9 °F 0.7 °F 3.0 °F 65% 30.73 in 10.0 mi ENE 9.2 mph - N/A   Clear
4:53 AM 10.9 °F -3.4 °F 3.0 °F 70% 30.74 in 10.0 mi NE 11.5 mph - N/A   Clear
5:53 AM 10.9 °F - 1.9 °F 67% 30.74 in 10.0 mi Calm Calm - N/A   Clear
6:53 AM 15.1 °F 0.5 °F 3.0 °F 59% 30.73 in 10.0 mi North 13.8 mph - N/A   Clear
7:53 AM 19.9 °F 12.1 °F 3.0 °F 48% 30.73 in 10.0 mi Variable 5.8 mph 24.2 mph N/A   Clear
8:53 AM 19.0 °F 8.2 °F 3.9 °F 52% 30.72 in 10.0 mi NNE 9.2 mph 21.9 mph N/A   Clear
9:53 AM 15.1 °F - 3.0 °F 59% 30.71 in 10.0 mi Calm Calm - N/A   Clear
10:53 AM 12.0 °F - 3.9 °F 70% 30.72 in 10.0 mi Calm Calm - N/A   Clear
11:53 AM 12.0 °F - 3.9 °F 70% 30.70 in 10.0 mi Calm Calm - N/A   Clear
12:53 PM 17.1 °F 11.7 °F 5.0 °F 59% 30.71 in 10.0 mi North 3.5 mph - N/A   Partly Cloudy
1:53 PM 17.1 °F 7.6 °F 6.1 °F 62% 30.70 in 10.0 mi NW 6.9 mph - N/A   Scattered Clouds
2:53 PM 19.9 °F 10.1 °F 6.1 °F 55% 30.69 in 10.0 mi NNE 8.1 mph - N/A   Scattered Clouds
3:53 PM 18.0 °F 4.2 °F 7.0 °F 62% 30.68 in 10.0 mi NNE 13.8 mph - N/A   Scattered Clouds
4:53 PM 17.1 °F - 6.1 °F 62% 30.68 in 10.0 mi Calm Calm - N/A   Partly Cloudy
5:53 PM 16.0 °F 4.4 °F 5.0 °F 62% 30.66 in 10.0 mi ENE 9.2 mph - N/A   Partly Cloudy
6:53 PM 16.0 °F -0.4 °F 5.0 °F 62% 30.66 in 10.0 mi North 18.4 mph 23.0 mph N/A   Partly Cloudy
7:53 PM 17.1 °F -0.3 °F 7.0 °F 65% 30.63 in 10.0 mi NNE 21.9 mph 31.1 mph N/A   Partly Cloudy
8:53 PM 17.1 °F 5.8 °F 5.0 °F 59% 30.67 in 10.0 mi North 9.2 mph 16.1 mph N/A   Partly Cloudy
9:53 PM 18.0 °F 2.6 °F 6.1 °F 60% 30.66 in 10.0 mi NNE 17.3 mph 27.6 mph N/A   Partly Cloudy
10:53 PM 19.0 °F 5.0 °F 6.1 °F 57% 30.66 in 10.0 mi NNE 15.0 mph - N/A   Partly Cloudy
11:53 PM 18.0 °F 2.2 °F 6.1 °F 60% 30.66 in 10.0 mi North 18.4 mph - N/A   Partly Cloudy